Time,TemperatureF,DewpointF,PressureIn,WindDirection,WindDirectionDegrees,WindSpeedMPH,WindSpeedGustMPH,Humidity,HourlyPrecipIn,Conditions,Clouds,dailyrainin,SoftwareType,DateUTC
2013-04-30 00:01:00,49.1,44.0,30.27,NW,315,2.0,3.0,82,0.00,,,0.00,Rainwise IP-100,2013-04-30 04:01:00,
2013-04-30 00:03:00,48.8,45.0,30.27,NW,315,1.0,2.0,85,0.00,,,0.00,Rainwise IP-100,2013-04-30 04:03:00,
2013-04-30 00:04:00,48.8,45.0,30.27,NW,315,1.0,2.0,86,0.00,,,0.00,Rainwise IP-100,2013-04-30 04:04:00,
2013-04-30 00:06:00,48.7,45.0,30.27,NW,315,1.0,2.0,85,0.00,,,0.00,Rainwise IP-100,2013-04-30 04:06:00,
2013-04-30 00:07:00,48.5,45.0,30.27,NW,315,1.0,2.0,86,0.00,,,0.00,Rainwise IP-100,2013-04-30 04:07:00,
2013-04-30 00:12:00,48.2,44.0,30.27,NW,315,2.0,4.0,85,0.00,,,0.00,Rainwise IP-100,2013-04-30 04:12:00,
2013-04-30 00:17:00,48.1,44.0,30.27,North,360,1.0,2.0,86,0.00,,,0.00,Rainwise IP-100,2013-04-30 04:17:00,
2013-04-30 00:22:00,47.9,44.0,30.27,NW,315,2.0,2.0,86,0.00,,,0.00,Rainwise IP-100,2013-04-30 04:22:00,
2013-04-30 00:27:00,47.7,45.0,30.27,NW,315,0.0,2.0,90,0.00,,,0.00,Rainwise IP-100,2013-04-30 04:27:00,
2013-04-30 00:33:00,47.4,44.0,30.27,NW,315,1.0,2.0,89,0.00,,,0.00,Rainwise IP-100,2013-04-30 04:33:00,
2013-04-30 00:38:00,47.2,44.0,30.27,NW,315,0.0,2.0,92,0.00,,,0.00,Rainwise IP-100,2013-04-30 04:38:00,
2013-04-30 00:43:00,47.2,43.0,30.27,SSE,157,3.0,4.0,87,0.00,,,0.00,Rainwise IP-100,2013-04-30 04:43:00,
2013-04-30 00:48:00,47.7,43.0,30.27,South,180,2.0,6.0,86,0.00,,,0.00,Rainwise IP-100,2013-04-30 04:48:00,
2013-04-30 00:53:00,47.9,44.0,30.27,South,180,1.0,5.0,85,0.00,,,0.00,Rainwise IP-100,2013-04-30 04:53:00,
2013-04-30 00:58:00,47.9,44.0,30.27,SSW,202,1.0,2.0,86,0.00,,,0.00,Rainwise IP-100,2013-04-30 04:58:00,
2013-04-30 01:03:00,47.9,44.0,30.27,South,180,2.0,5.0,86,0.00,,,0.00,Rainwise IP-100,2013-04-30 05:03:00,
2013-04-30 01:08:00,47.9,44.0,30.27,SSW,202,1.0,5.0,86,0.00,,,0.00,Rainwise IP-100,2013-04-30 05:08:00,
2013-04-30 01:13:00,47.9,44.0,30.27,SW,225,1.0,6.0,86,0.00,,,0.00,Rainwise IP-100,2013-04-30 05:13:00,
2013-04-30 01:18:00,47.8,45.0,30.27,SW,225,1.0,7.0,88,0.00,,,0.00,Rainwise IP-100,2013-04-30 05:18:00,
2013-04-30 01:23:00,47.6,44.0,30.27,South,180,3.0,3.0,89,0.00,,,0.00,Rainwise IP-100,2013-04-30 05:23:00,
2013-04-30 01:28:00,47.5,44.0,30.27,South,180,2.0,5.0,89,0.00,,,0.00,Rainwise IP-100,2013-04-30 05:28:00,
2013-04-30 01:34:00,47.4,45.0,30.27,South,180,2.0,5.0,90,0.00,,,0.00,Rainwise IP-100,2013-04-30 05:34:00,
2013-04-30 01:39:00,47.2,45.0,30.27,South,180,0.0,2.0,93,0.06,,,0.01,Rainwise IP-100,2013-04-30 05:39:00,
2013-04-30 01:44:00,46.9,45.0,30.27,SW,225,0.0,2.0,93,0.12,,,0.02,Rainwise IP-100,2013-04-30 05:44:00,
2013-04-30 01:49:00,46.9,45.0,30.27,ESE,112,1.0,4.0,93,0.06,,,0.02,Rainwise IP-100,2013-04-30 05:49:00,
2013-04-30 01:54:00,46.7,45.0,30.27,SSE,157,0.0,2.0,95,0.00,,,0.02,Rainwise IP-100,2013-04-30 05:54:00,
2013-04-30 01:59:00,46.5,46.0,30.27,SSE,157,0.0,0.0,96,0.00,,,0.02,Rainwise IP-100,2013-04-30 05:59:00,
2013-04-30 02:04:00,46.2,45.0,30.27,SSE,157,0.0,0.0,97,0.00,,,0.02,Rainwise IP-100,2013-04-30 06:04:00,
2013-04-30 02:09:00,45.9,45.0,30.27,SW,225,2.0,0.0,97,0.00,,,0.02,Rainwise IP-100,2013-04-30 06:09:00,
2013-04-30 02:14:00,45.8,45.0,30.27,North,360,1.0,2.0,97,0.06,,,0.03,Rainwise IP-100,2013-04-30 06:14:00,
2013-04-30 02:19:00,45.7,45.0,30.27,NW,315,1.0,2.0,97,0.06,,,0.03,Rainwise IP-100,2013-04-30 06:19:00,
2013-04-30 02:24:00,45.6,45.0,30.27,NW,315,2.0,2.0,97,0.00,,,0.03,Rainwise IP-100,2013-04-30 06:24:00,
2013-04-30 02:29:00,45.8,45.0,30.27,NW,315,2.0,2.0,97,0.00,,,0.03,Rainwise IP-100,2013-04-30 06:29:00,
2013-04-30 02:35:00,45.7,45.0,30.27,NW,315,1.0,2.0,97,0.00,,,0.03,Rainwise IP-100,2013-04-30 06:35:00,
2013-04-30 02:40:00,45.6,45.0,30.27,NW,315,1.0,2.0,97,0.00,,,0.03,Rainwise IP-100,2013-04-30 06:40:00,
2013-04-30 02:45:00,45.5,45.0,30.27,NW,315,1.0,2.0,97,0.00,,,0.03,Rainwise IP-100,2013-04-30 06:45:00,
2013-04-30 02:50:00,45.4,44.0,30.27,NW,315,0.0,2.0,97,0.00,,,0.03,Rainwise IP-100,2013-04-30 06:50:00,
2013-04-30 02:55:00,45.4,44.0,30.27,West,270,0.0,2.0,97,0.00,,,0.03,Rainwise IP-100,2013-04-30 06:55:00,
2013-04-30 03:00:00,45.4,44.0,30.27,North,360,1.0,2.0,97,0.00,,,0.03,Rainwise IP-100,2013-04-30 07:00:00,
2013-04-30 03:05:00,45.4,44.0,30.27,North,360,1.0,2.0,97,0.00,,,0.03,Rainwise IP-100,2013-04-30 07:05:00,
2013-04-30 03:10:00,45.3,44.0,30.27,NW,315,1.0,2.0,97,0.00,,,0.03,Rainwise IP-100,2013-04-30 07:10:00,
2013-04-30 03:15:00,45.3,44.0,30.27,NW,315,0.0,2.0,97,0.00,,,0.03,Rainwise IP-100,2013-04-30 07:15:00,
2013-04-30 03:20:00,45.3,44.0,30.27,NW,315,0.0,0.0,97,0.00,,,0.03,Rainwise IP-100,2013-04-30 07:20:00,
2013-04-30 03:25:00,45.3,44.0,30.27,NW,315,2.0,2.0,97,0.00,,,0.03,Rainwise IP-100,2013-04-30 07:25:00,
2013-04-30 03:30:00,45.4,44.0,30.27,NW,315,2.0,3.0,97,0.06,,,0.04,Rainwise IP-100,2013-04-30 07:30:00,
2013-04-30 03:36:00,45.5,45.0,30.27,North,360,0.0,2.0,97,0.06,,,0.04,Rainwise IP-100,2013-04-30 07:36:00,
2013-04-30 03:41:00,45.9,45.0,30.27,North,360,1.0,2.0,97,0.00,,,0.04,Rainwise IP-100,2013-04-30 07:41:00,
2013-04-30 03:46:00,45.8,45.0,30.27,North,360,2.0,2.0,97,0.00,,,0.04,Rainwise IP-100,2013-04-30 07:46:00,
2013-04-30 03:51:00,45.7,45.0,30.27,North,360,1.0,2.0,97,0.00,,,0.04,Rainwise IP-100,2013-04-30 07:51:00,
2013-04-30 03:56:00,45.6,45.0,30.27,North,360,2.0,2.0,97,0.00,,,0.04,Rainwise IP-100,2013-04-30 07:56:00,
2013-04-30 04:01:00,45.8,45.0,30.27,NW,315,2.0,2.0,97,0.00,,,0.04,Rainwise IP-100,2013-04-30 08:01:00,
2013-04-30 04:06:00,45.6,45.0,30.27,North,360,1.0,2.0,97,0.00,,,0.04,Rainwise IP-100,2013-04-30 08:06:00,
2013-04-30 04:11:00,45.7,45.0,30.28,NW,315,1.0,3.0,97,0.00,,,0.04,Rainwise IP-100,2013-04-30 08:11:00,
2013-04-30 04:16:00,45.8,45.0,30.28,NW,315,1.0,2.0,97,0.00,,,0.04,Rainwise IP-100,2013-04-30 08:16:00,
2013-04-30 04:21:00,45.7,45.0,30.28,NNE,22,2.0,2.0,97,0.00,,,0.04,Rainwise IP-100,2013-04-30 08:21:00,
2013-04-30 04:26:00,45.6,45.0,30.28,NNE,22,1.0,2.0,97,0.00,,,0.04,Rainwise IP-100,2013-04-30 08:26:00,
2013-04-30 04:31:00,45.5,45.0,30.28,NNE,22,0.0,2.0,97,0.00,,,0.04,Rainwise IP-100,2013-04-30 08:31:00,
2013-04-30 04:37:00,45.4,44.0,30.28,NNE,22,0.0,1.0,97,0.00,,,0.04,Rainwise IP-100,2013-04-30 08:37:00,
2013-04-30 04:42:00,45.3,44.0,30.28,North,360,2.0,2.0,97,0.00,,,0.04,Rainwise IP-100,2013-04-30 08:42:00,
2013-04-30 04:47:00,45.4,44.0,30.29,North,360,2.0,2.0,97,0.00,,,0.04,Rainwise IP-100,2013-04-30 08:47:00,
2013-04-30 04:52:00,45.3,44.0,30.29,North,360,0.0,2.0,97,0.00,,,0.04,Rainwise IP-100,2013-04-30 08:52:00,
2013-04-30 04:57:00,45.2,44.0,30.29,North,360,0.0,2.0,97,0.00,,,0.04,Rainwise IP-100,2013-04-30 08:57:00,
2013-04-30 05:02:00,45.2,44.0,30.29,North,360,0.0,1.0,97,0.00,,,0.04,Rainwise IP-100,2013-04-30 09:02:00,
2013-04-30 05:07:00,45.1,44.0,30.29,North,360,0.0,2.0,97,0.00,,,0.04,Rainwise IP-100,2013-04-30 09:07:00,
2013-04-30 05:12:00,45.4,44.0,30.29,West,270,0.0,2.0,97,0.00,,,0.04,Rainwise IP-100,2013-04-30 09:12:00,
2013-04-30 05:17:00,45.3,44.0,30.29,West,270,0.0,0.0,97,0.00,,,0.04,Rainwise IP-100,2013-04-30 09:17:00,
2013-04-30 05:22:00,45.3,44.0,30.29,West,270,0.0,2.0,97,0.00,,,0.04,Rainwise IP-100,2013-04-30 09:22:00,
2013-04-30 05:27:00,45.2,44.0,30.29,West,270,0.0,0.0,97,0.00,,,0.04,Rainwise IP-100,2013-04-30 09:27:00,
2013-04-30 05:33:00,45.0,44.0,30.29,West,270,0.0,1.0,97,0.00,,,0.04,Rainwise IP-100,2013-04-30 09:33:00,
2013-04-30 05:38:00,44.9,44.0,30.29,West,270,0.0,0.0,96,0.00,,,0.04,Rainwise IP-100,2013-04-30 09:38:00,
2013-04-30 05:43:00,44.9,44.0,30.30,West,270,0.0,0.0,96,0.00,,,0.04,Rainwise IP-100,2013-04-30 09:43:00,
2013-04-30 05:48:00,44.9,44.0,30.30,West,270,1.0,0.0,96,0.00,,,0.04,Rainwise IP-100,2013-04-30 09:48:00,
2013-04-30 05:53:00,44.9,44.0,30.30,West,270,0.0,1.0,96,0.00,,,0.04,Rainwise IP-100,2013-04-30 09:53:00,
2013-04-30 05:58:00,44.9,44.0,30.30,West,270,0.0,0.0,96,0.00,,,0.04,Rainwise IP-100,2013-04-30 09:58:00,
2013-04-30 06:03:00,44.9,44.0,30.30,West,270,0.0,1.0,96,0.00,,,0.04,Rainwise IP-100,2013-04-30 10:03:00,
2013-04-30 06:08:00,44.9,44.0,30.30,West,270,0.0,0.0,96,0.00,,,0.04,Rainwise IP-100,2013-04-30 10:08:00,
2013-04-30 06:13:00,44.9,44.0,30.30,West,270,0.0,0.0,96,0.00,,,0.04,Rainwise IP-100,2013-04-30 10:13:00,
2013-04-30 06:18:00,44.9,44.0,30.31,West,270,0.0,2.0,96,0.00,,,0.04,Rainwise IP-100,2013-04-30 10:18:00,
2013-04-30 06:23:00,44.9,44.0,30.31,West,270,0.0,1.0,96,0.00,,,0.04,Rainwise IP-100,2013-04-30 10:23:00,
2013-04-30 06:28:00,45.0,44.0,30.31,West,270,0.0,0.0,97,0.00,,,0.04,Rainwise IP-100,2013-04-30 10:28:00,
2013-04-30 06:33:00,45.1,44.0,30.31,West,270,0.0,2.0,97,0.00,,,0.04,Rainwise IP-100,2013-04-30 10:33:00,
2013-04-30 06:39:00,45.2,44.0,30.31,West,270,0.0,0.0,97,0.00,,,0.04,Rainwise IP-100,2013-04-30 10:39:00,
2013-04-30 06:44:00,45.3,44.0,30.31,West,270,0.0,0.0,97,0.00,,,0.04,Rainwise IP-100,2013-04-30 10:44:00,
2013-04-30 06:49:00,45.4,44.0,30.31,West,270,0.0,2.0,97,0.00,,,0.04,Rainwise IP-100,2013-04-30 10:49:00,
2013-04-30 06:54:00,45.6,45.0,30.31,West,270,1.0,2.0,97,0.00,,,0.04,Rainwise IP-100,2013-04-30 10:54:00,
2013-04-30 06:59:00,45.6,45.0,30.31,West,270,0.0,2.0,97,0.00,,,0.04,Rainwise IP-100,2013-04-30 10:59:00,
2013-04-30 07:04:00,45.8,45.0,30.32,West,270,0.0,2.0,97,0.00,,,0.04,Rainwise IP-100,2013-04-30 11:04:00,
2013-04-30 07:09:00,45.8,45.0,30.32,West,270,0.0,1.0,97,0.00,,,0.04,Rainwise IP-100,2013-04-30 11:09:00,
2013-04-30 07:14:00,46.0,45.0,30.32,West,270,0.0,0.0,97,0.00,,,0.04,Rainwise IP-100,2013-04-30 11:14:00,
2013-04-30 07:19:00,46.2,45.0,30.32,West,270,0.0,2.0,97,0.00,,,0.04,Rainwise IP-100,2013-04-30 11:19:00,
2013-04-30 07:24:00,46.2,45.0,30.32,South,180,2.0,2.0,97,0.00,,,0.04,Rainwise IP-100,2013-04-30 11:24:00,
2013-04-30 07:29:00,46.3,45.0,30.33,South,180,1.0,2.0,97,0.00,,,0.04,Rainwise IP-100,2013-04-30 11:29:00,
2013-04-30 07:34:00,46.5,46.0,30.33,South,180,1.0,2.0,97,0.00,,,0.04,Rainwise IP-100,2013-04-30 11:34:00,
2013-04-30 07:40:00,46.8,46.0,30.33,SSE,157,2.0,2.0,97,0.00,,,0.04,Rainwise IP-100,2013-04-30 11:40:00,
2013-04-30 07:45:00,46.9,46.0,30.33,SSE,157,0.0,2.0,97,0.00,,,0.04,Rainwise IP-100,2013-04-30 11:45:00,
2013-04-30 07:50:00,47.5,47.0,30.33,North,360,2.0,2.0,97,0.00,,,0.04,Rainwise IP-100,2013-04-30 11:50:00,
2013-04-30 07:55:00,47.8,47.5,30.33,North,360,2.0,2.0,97,0.00,,,0.04,Rainwise IP-100,2013-04-30 11:55:00,
2013-04-30 08:00:00,48.2,47.5,30.33,North,360,0.0,2.0,97,0.00,,,0.04,Rainwise IP-100,2013-04-30 12:00:00,
2013-04-30 08:05:00,48.6,48.0,30.33,North,360,2.0,2.0,97,0.00,,,0.04,Rainwise IP-100,2013-04-30 12:05:00,
2013-04-30 08:10:00,48.8,48.0,30.33,North,360,0.0,2.0,97,0.00,,,0.04,Rainwise IP-100,2013-04-30 12:10:00,
2013-04-30 08:15:00,48.8,48.0,30.33,NW,315,1.0,2.0,97,0.00,,,0.04,Rainwise IP-100,2013-04-30 12:15:00,
2013-04-30 08:20:00,49.0,48.0,30.33,NW,315,0.0,2.0,97,0.00,,,0.04,Rainwise IP-100,2013-04-30 12:20:00,
2013-04-30 08:25:00,49.3,48.0,30.33,NW,315,2.0,2.0,97,0.00,,,0.04,Rainwise IP-100,2013-04-30 12:25:00,
2013-04-30 08:30:00,49.7,49.0,30.33,NW,315,2.0,2.0,97,0.00,,,0.04,Rainwise IP-100,2013-04-30 12:30:00,
2013-04-30 08:36:00,49.8,49.0,30.34,North,360,1.0,2.0,97,0.00,,,0.04,Rainwise IP-100,2013-04-30 12:36:00,
2013-04-30 08:41:00,50.0,49.0,30.34,North,360,1.0,2.0,97,0.00,,,0.04,Rainwise IP-100,2013-04-30 12:41:00,
2013-04-30 08:46:00,50.1,49.0,30.34,ESE,112,2.0,2.0,97,0.00,,,0.04,Rainwise IP-100,2013-04-30 12:46:00,
2013-04-30 08:51:00,50.3,50.0,30.35,ESE,112,0.0,2.0,96,0.00,,,0.04,Rainwise IP-100,2013-04-30 12:51:00,
2013-04-30 08:56:00,50.7,50.0,30.34,ESE,112,0.0,0.0,97,0.00,,,0.04,Rainwise IP-100,2013-04-30 12:56:00,
2013-04-30 09:02:00,50.9,50.5,30.34,SE,135,0.0,1.0,97,0.00,,,0.04,Rainwise IP-100,2013-04-30 13:02:00,
2013-04-30 09:07:00,51.1,50.5,30.34,SE,135,0.0,0.0,97,0.00,,,0.04,Rainwise IP-100,2013-04-30 13:07:00,
2013-04-30 09:12:00,51.3,50.5,30.34,SE,135,0.0,0.0,97,0.00,,,0.04,Rainwise IP-100,2013-04-30 13:12:00,
2013-04-30 09:17:00,51.6,51.0,30.34,SE,135,0.0,0.0,97,0.00,,,0.04,Rainwise IP-100,2013-04-30 13:17:00,
2013-04-30 09:22:00,51.6,51.0,30.34,SE,135,0.0,0.0,97,0.00,,,0.04,Rainwise IP-100,2013-04-30 13:22:00,
2013-04-30 09:27:00,51.9,50.5,30.34,NW,315,1.0,2.0,96,0.00,,,0.04,Rainwise IP-100,2013-04-30 13:27:00,
2013-04-30 09:32:00,51.9,50.5,30.34,NW,315,0.0,2.0,94,0.00,,,0.04,Rainwise IP-100,2013-04-30 13:32:00,
2013-04-30 09:38:00,52.2,49.0,30.34,NW,315,0.0,0.0,89,0.00,,,0.04,Rainwise IP-100,2013-04-30 13:38:00,
2013-04-30 09:43:00,52.5,50.0,30.34,NW,315,0.0,0.0,91,0.00,,,0.04,Rainwise IP-100,2013-04-30 13:43:00,
2013-04-30 09:48:00,52.7,50.0,30.34,NW,315,0.0,0.0,90,0.00,,,0.04,Rainwise IP-100,2013-04-30 13:48:00,
2013-04-30 09:53:00,52.9,50.0,30.34,NW,315,0.0,2.0,90,0.00,,,0.04,Rainwise IP-100,2013-04-30 13:53:00,
2013-04-30 09:58:00,53.2,50.0,30.35,NW,315,0.0,1.0,91,0.00,,,0.04,Rainwise IP-100,2013-04-30 13:58:00,
2013-04-30 10:03:00,53.5,50.5,30.35,West,270,0.0,1.0,90,0.00,,,0.04,Rainwise IP-100,2013-04-30 14:03:00,
2013-04-30 10:08:00,53.7,50.5,30.35,West,270,0.0,2.0,91,0.00,,,0.04,Rainwise IP-100,2013-04-30 14:08:00,
2013-04-30 10:13:00,53.9,50.5,30.35,NW,315,2.0,2.0,87,0.00,,,0.04,Rainwise IP-100,2013-04-30 14:13:00,
2013-04-30 10:18:00,54.1,50.5,30.35,NW,315,0.0,2.0,88,0.00,,,0.04,Rainwise IP-100,2013-04-30 14:18:00,
2013-04-30 10:23:00,54.6,50.5,30.35,WNW,292,2.0,2.0,87,0.00,,,0.04,Rainwise IP-100,2013-04-30 14:23:00,
2013-04-30 10:28:00,54.9,50.5,30.35,North,360,1.0,2.0,84,0.00,,,0.04,Rainwise IP-100,2013-04-30 14:28:00,
2013-04-30 10:33:00,55.8,50.5,30.35,North,360,2.0,3.0,83,0.00,,,0.04,Rainwise IP-100,2013-04-30 14:33:00,
2013-04-30 10:39:00,55.9,50.5,30.35,West,270,0.0,3.0,83,0.00,,,0.04,Rainwise IP-100,2013-04-30 14:39:00,
2013-04-30 10:44:00,56.2,50.0,30.35,NW,315,0.0,2.0,80,0.00,,,0.04,Rainwise IP-100,2013-04-30 14:44:00,
2013-04-30 10:49:00,56.7,50.0,30.35,NNW,337,2.0,2.0,79,0.00,,,0.04,Rainwise IP-100,2013-04-30 14:49:00,
2013-04-30 10:54:00,57.2,50.0,30.35,North,360,0.0,2.0,77,0.00,,,0.04,Rainwise IP-100,2013-04-30 14:54:00,
2013-04-30 10:59:00,57.6,50.0,30.35,North,360,1.0,4.0,74,0.00,,,0.04,Rainwise IP-100,2013-04-30 14:59:00,
2013-04-30 11:04:00,57.8,50.5,30.35,NNW,337,2.0,4.0,75,0.00,,,0.04,Rainwise IP-100,2013-04-30 15:04:00,
2013-04-30 11:09:00,57.8,50.0,30.35,NE,45,2.0,5.0,73,0.00,,,0.04,Rainwise IP-100,2013-04-30 15:09:00,
2013-04-30 11:14:00,58.1,50.5,30.35,WNW,292,1.0,3.0,75,0.00,,,0.04,Rainwise IP-100,2013-04-30 15:14:00,
2013-04-30 11:19:00,58.4,50.0,30.35,NE,45,2.0,2.0,74,0.00,,,0.04,Rainwise IP-100,2013-04-30 15:19:00,
2013-04-30 11:24:00,58.8,50.5,30.35,SE,135,1.0,2.0,73,0.00,,,0.04,Rainwise IP-100,2013-04-30 15:24:00,
2013-04-30 11:29:00,58.7,50.5,30.35,West,270,2.0,5.0,73,0.00,,,0.04,Rainwise IP-100,2013-04-30 15:29:00,
2013-04-30 11:34:00,59.4,50.0,30.36,WNW,292,2.0,6.0,71,0.00,,,0.04,Rainwise IP-100,2013-04-30 15:34:00,
2013-04-30 11:40:00,60.2,50.0,30.36,NW,315,4.0,5.0,69,0.00,,,0.04,Rainwise IP-100,2013-04-30 15:40:00,
2013-04-30 11:45:00,60.1,50.0,30.36,North,360,1.0,4.0,69,0.00,,,0.04,Rainwise IP-100,2013-04-30 15:45:00,
2013-04-30 11:50:00,60.7,50.0,30.36,NW,315,1.0,4.0,68,0.00,,,0.04,Rainwise IP-100,2013-04-30 15:50:00,
2013-04-30 11:55:00,60.9,50.5,30.36,SW,225,2.0,3.0,68,0.00,,,0.04,Rainwise IP-100,2013-04-30 15:55:00,
2013-04-30 12:00:00,60.9,50.0,30.36,NW,315,2.0,2.0,67,0.00,,,0.04,Rainwise IP-100,2013-04-30 16:00:00,
2013-04-30 12:05:00,61.2,50.5,30.36,SW,225,2.0,2.0,69,0.00,,,0.04,Rainwise IP-100,2013-04-30 16:05:00,
2013-04-30 12:10:00,61.3,49.0,30.36,SW,225,2.0,4.0,64,0.00,,,0.04,Rainwise IP-100,2013-04-30 16:10:00,
2013-04-30 12:15:00,61.4,49.0,30.36,SW,225,1.0,2.0,63,0.00,,,0.04,Rainwise IP-100,2013-04-30 16:15:00,
2013-04-30 12:20:00,61.9,48.0,30.36,South,180,2.0,4.0,61,0.00,,,0.04,Rainwise IP-100,2013-04-30 16:20:00,
2013-04-30 12:25:00,62.3,48.0,30.37,SW,225,0.0,3.0,60,0.00,,,0.04,Rainwise IP-100,2013-04-30 16:25:00,
2013-04-30 12:30:00,62.1,48.0,30.37,SE,135,1.0,2.0,61,0.00,,,0.04,Rainwise IP-100,2013-04-30 16:30:00,
2013-04-30 12:35:00,62.3,49.0,30.37,South,180,1.0,5.0,62,0.00,,,0.04,Rainwise IP-100,2013-04-30 16:35:00,
2013-04-30 12:41:00,62.9,47.5,30.36,South,180,2.0,6.0,57,0.00,,,0.04,Rainwise IP-100,2013-04-30 16:41:00,
2013-04-30 12:46:00,62.4,47.5,30.36,West,270,3.0,7.0,58,0.00,,,0.04,Rainwise IP-100,2013-04-30 16:46:00,
2013-04-30 12:51:00,62.9,47.5,30.37,SW,225,2.0,5.0,57,0.00,,,0.04,Rainwise IP-100,2013-04-30 16:51:00,
2013-04-30 12:56:00,63.3,47.5,30.37,SW,225,2.0,4.0,56,0.00,,,0.04,Rainwise IP-100,2013-04-30 16:56:00,
2013-04-30 13:01:00,63.2,47.5,30.37,NW,315,2.0,5.0,57,0.00,,,0.04,Rainwise IP-100,2013-04-30 17:01:00,
2013-04-30 13:06:00,63.4,48.0,30.37,SW,225,1.0,3.0,58,0.00,,,0.04,Rainwise IP-100,2013-04-30 17:06:00,
2013-04-30 13:11:00,64.3,47.0,30.37,South,180,2.0,6.0,52,0.00,,,0.04,Rainwise IP-100,2013-04-30 17:11:00,
2013-04-30 13:16:00,64.3,47.0,30.37,South,180,6.0,7.0,53,0.00,,,0.04,Rainwise IP-100,2013-04-30 17:16:00,
2013-04-30 13:21:00,63.9,47.0,30.37,SE,135,3.0,8.0,53,0.00,,,0.04,Rainwise IP-100,2013-04-30 17:21:00,
2013-04-30 13:26:00,64.2,47.0,30.37,South,180,5.0,12.0,53,0.00,,,0.04,Rainwise IP-100,2013-04-30 17:26:00,
2013-04-30 13:31:00,64.0,47.0,30.37,West,270,2.0,6.0,54,0.00,,,0.04,Rainwise IP-100,2013-04-30 17:31:00,
2013-04-30 13:36:00,64.4,47.0,30.37,South,180,2.0,7.0,52,0.00,,,0.04,Rainwise IP-100,2013-04-30 17:36:00,
2013-04-30 13:42:00,64.4,48.0,30.37,South,180,6.0,7.0,55,0.00,,,0.04,Rainwise IP-100,2013-04-30 17:42:00,
2013-04-30 13:47:00,64.4,47.0,30.37,West,270,1.0,9.0,52,0.00,,,0.04,Rainwise IP-100,2013-04-30 17:47:00,
2013-04-30 13:52:00,64.3,47.0,30.37,South,180,3.0,8.0,53,0.00,,,0.04,Rainwise IP-100,2013-04-30 17:52:00,
2013-04-30 13:57:00,64.4,47.5,30.37,South,180,6.0,6.0,54,0.00,,,0.04,Rainwise IP-100,2013-04-30 17:57:00,
2013-04-30 14:02:00,64.3,47.0,30.37,SSE,157,7.0,8.0,53,0.00,,,0.04,Rainwise IP-100,2013-04-30 18:02:00,
2013-04-30 14:07:00,64.6,47.0,30.38,South,180,3.0,6.0,53,0.00,,,0.04,Rainwise IP-100,2013-04-30 18:07:00,
2013-04-30 14:12:00,64.5,47.0,30.38,South,180,9.0,9.0,52,0.00,,,0.04,Rainwise IP-100,2013-04-30 18:12:00,
2013-04-30 14:17:00,64.5,47.0,30.38,WSW,247,5.0,11.0,52,0.00,,,0.04,Rainwise IP-100,2013-04-30 18:17:00,
2013-04-30 14:22:00,64.3,47.5,30.38,SW,225,2.0,6.0,54,0.00,,,0.04,Rainwise IP-100,2013-04-30 18:22:00,
2013-04-30 14:27:00,64.8,47.0,30.38,SW,225,6.0,6.0,51,0.00,,,0.04,Rainwise IP-100,2013-04-30 18:27:00,
2013-04-30 14:32:00,64.9,47.0,30.38,WSW,247,2.0,11.0,51,0.00,,,0.04,Rainwise IP-100,2013-04-30 18:32:00,
2013-04-30 14:37:00,64.7,46.0,30.38,South,180,7.0,10.0,51,0.00,,,0.04,Rainwise IP-100,2013-04-30 18:37:00,
2013-04-30 14:43:00,64.9,47.0,30.38,South,180,6.0,9.0,51,0.00,,,0.04,Rainwise IP-100,2013-04-30 18:43:00,
2013-04-30 14:48:00,64.7,47.0,30.38,South,180,6.0,6.0,52,0.00,,,0.04,Rainwise IP-100,2013-04-30 18:48:00,
2013-04-30 14:53:00,65.1,46.0,30.38,SSE,157,5.0,10.0,50,0.00,,,0.04,Rainwise IP-100,2013-04-30 18:53:00,
2013-04-30 14:58:00,64.9,46.0,30.38,South,180,6.0,11.0,50,0.00,,,0.04,Rainwise IP-100,2013-04-30 18:58:00,
2013-04-30 15:03:00,64.9,47.0,30.38,West,270,4.0,6.0,51,0.00,,,0.04,Rainwise IP-100,2013-04-30 19:03:00,
2013-04-30 15:08:00,65.4,47.0,30.38,South,180,5.0,9.0,51,0.00,,,0.04,Rainwise IP-100,2013-04-30 19:08:00,
2013-04-30 15:13:00,65.1,46.0,30.38,SSE,157,5.0,10.0,50,0.00,,,0.04,Rainwise IP-100,2013-04-30 19:13:00,
2013-04-30 15:18:00,65.3,47.0,30.38,SW,225,2.0,8.0,50,0.00,,,0.04,Rainwise IP-100,2013-04-30 19:18:00,
2013-04-30 15:23:00,65.3,47.0,30.38,South,180,5.0,11.0,50,0.00,,,0.04,Rainwise IP-100,2013-04-30 19:23:00,
2013-04-30 15:28:00,65.4,47.0,30.38,South,180,3.0,7.0,50,0.00,,,0.04,Rainwise IP-100,2013-04-30 19:28:00,
2013-04-30 15:33:00,65.6,47.0,30.38,South,180,9.0,11.0,50,0.00,,,0.04,Rainwise IP-100,2013-04-30 19:33:00,
2013-04-30 15:38:00,65.3,47.0,30.38,South,180,9.0,10.0,50,0.00,,,0.04,Rainwise IP-100,2013-04-30 19:38:00,
2013-04-30 15:44:00,65.1,47.0,30.38,SE,135,6.0,10.0,51,0.00,,,0.04,Rainwise IP-100,2013-04-30 19:44:00,
2013-04-30 15:49:00,65.4,47.0,30.38,South,180,2.0,6.0,50,0.00,,,0.04,Rainwise IP-100,2013-04-30 19:49:00,
2013-04-30 15:54:00,65.8,47.0,30.38,SW,225,3.0,4.0,50,0.00,,,0.04,Rainwise IP-100,2013-04-30 19:54:00,
2013-04-30 15:59:00,66.1,46.0,30.38,South,180,4.0,11.0,49,0.00,,,0.04,Rainwise IP-100,2013-04-30 19:59:00,
2013-04-30 16:04:00,65.9,46.0,30.38,SE,135,3.0,8.0,49,0.00,,,0.04,Rainwise IP-100,2013-04-30 20:04:00,
2013-04-30 16:09:00,65.9,47.0,30.38,SW,225,2.0,6.0,50,0.00,,,0.04,Rainwise IP-100,2013-04-30 20:09:00,
2013-04-30 16:14:00,65.9,46.0,30.38,SW,225,1.0,5.0,49,0.00,,,0.04,Rainwise IP-100,2013-04-30 20:14:00,
2013-04-30 16:19:00,65.8,46.0,30.38,SW,225,4.0,7.0,48,0.00,,,0.04,Rainwise IP-100,2013-04-30 20:19:00,
2013-04-30 16:24:00,65.9,47.0,30.38,SSE,157,4.0,5.0,50,0.00,,,0.04,Rainwise IP-100,2013-04-30 20:24:00,
2013-04-30 16:29:00,66.0,46.0,30.38,SSE,157,4.0,6.0,49,0.00,,,0.04,Rainwise IP-100,2013-04-30 20:29:00,
2013-04-30 16:34:00,65.9,46.0,30.38,South,180,2.0,7.0,49,0.00,,,0.04,Rainwise IP-100,2013-04-30 20:34:00,
2013-04-30 16:39:00,65.9,47.0,30.38,South,180,2.0,5.0,50,0.00,,,0.04,Rainwise IP-100,2013-04-30 20:39:00,
2013-04-30 16:45:00,66.0,46.0,30.38,South,180,3.0,6.0,48,0.00,,,0.04,Rainwise IP-100,2013-04-30 20:45:00,
2013-04-30 16:50:00,65.9,46.0,30.38,South,180,2.0,4.0,49,0.00,,,0.04,Rainwise IP-100,2013-04-30 20:50:00,
2013-04-30 16:55:00,65.9,46.0,30.38,South,180,2.0,6.0,48,0.00,,,0.04,Rainwise IP-100,2013-04-30 20:55:00,
2013-04-30 17:00:00,65.9,46.0,30.38,South,180,4.0,6.0,49,0.00,,,0.04,Rainwise IP-100,2013-04-30 21:00:00,
2013-04-30 17:05:00,65.5,46.0,30.38,SE,135,2.0,5.0,49,0.00,,,0.04,Rainwise IP-100,2013-04-30 21:05:00,
2013-04-30 17:10:00,65.5,47.0,30.38,South,180,4.0,4.0,50,0.00,,,0.04,Rainwise IP-100,2013-04-30 21:10:00,
2013-04-30 17:15:00,66.0,46.0,30.38,SSW,202,2.0,4.0,48,0.00,,,0.04,Rainwise IP-100,2013-04-30 21:15:00,
2013-04-30 17:20:00,66.5,46.0,30.38,South,180,2.0,4.0,47,0.00,,,0.04,Rainwise IP-100,2013-04-30 21:20:00,
2013-04-30 17:25:00,66.1,46.0,30.38,SE,135,6.0,8.0,49,0.00,,,0.04,Rainwise IP-100,2013-04-30 21:25:00,
2013-04-30 17:30:00,65.9,46.0,30.38,SSE,157,4.0,6.0,49,0.00,,,0.04,Rainwise IP-100,2013-04-30 21:30:00,
2013-04-30 17:35:00,66.1,46.0,30.38,SSE,157,1.0,6.0,49,0.00,,,0.04,Rainwise IP-100,2013-04-30 21:35:00,
2013-04-30 17:40:00,66.0,46.0,30.38,SSE,157,1.0,6.0,49,0.00,,,0.04,Rainwise IP-100,2013-04-30 21:40:00,
2013-04-30 17:46:00,65.9,46.0,30.38,ESE,112,5.0,6.0,49,0.00,,,0.04,Rainwise IP-100,2013-04-30 21:46:00,
2013-04-30 17:51:00,66.4,46.0,30.38,South,180,6.0,8.0,48,0.00,,,0.04,Rainwise IP-100,2013-04-30 21:51:00,
2013-04-30 17:56:00,66.1,46.0,30.38,SSE,157,5.0,8.0,48,0.00,,,0.04,Rainwise IP-100,2013-04-30 21:56:00,
2013-04-30 18:01:00,66.3,46.0,30.38,SE,135,4.0,7.0,48,0.00,,,0.04,Rainwise IP-100,2013-04-30 22:01:00,
2013-04-30 18:06:00,66.1,46.0,30.38,SE,135,3.0,6.0,48,0.00,,,0.04,Rainwise IP-100,2013-04-30 22:06:00,
2013-04-30 18:11:00,65.9,46.0,30.38,SE,135,3.0,12.0,49,0.00,,,0.04,Rainwise IP-100,2013-04-30 22:11:00,
2013-04-30 18:16:00,65.9,46.0,30.38,SE,135,9.0,9.0,49,0.00,,,0.04,Rainwise IP-100,2013-04-30 22:16:00,
2013-04-30 18:21:00,65.5,46.0,30.38,SSE,157,4.0,9.0,49,0.00,,,0.04,Rainwise IP-100,2013-04-30 22:21:00,
2013-04-30 18:26:00,65.3,46.0,30.38,SSE,157,3.0,6.0,49,0.00,,,0.04,Rainwise IP-100,2013-04-30 22:26:00,
2013-04-30 18:31:00,65.1,46.0,30.38,SE,135,4.0,6.0,50,0.00,,,0.04,Rainwise IP-100,2013-04-30 22:31:00,
2013-04-30 18:36:00,65.3,47.0,30.38,South,180,1.0,6.0,50,0.00,,,0.04,Rainwise IP-100,2013-04-30 22:36:00,
2013-04-30 18:41:00,65.2,45.0,30.38,South,180,2.0,4.0,49,0.00,,,0.04,Rainwise IP-100,2013-04-30 22:41:00,
2013-04-30 18:47:00,65.1,48.0,30.38,South,180,0.0,3.0,55,0.00,,,0.04,Rainwise IP-100,2013-04-30 22:47:00,
2013-04-30 18:52:00,64.8,47.5,30.39,South,180,2.0,3.0,53,0.00,,,0.04,Rainwise IP-100,2013-04-30 22:52:00,
2013-04-30 18:57:00,64.6,47.5,30.39,South,180,1.0,2.0,54,0.00,,,0.04,Rainwise IP-100,2013-04-30 22:57:00,
2013-04-30 19:02:00,64.3,48.0,30.39,South,180,1.0,1.0,55,0.00,,,0.04,Rainwise IP-100,2013-04-30 23:02:00,
2013-04-30 19:07:00,63.9,49.0,30.38,South,180,1.0,2.0,59,0.00,,,0.04,Rainwise IP-100,2013-04-30 23:07:00,
2013-04-30 19:12:00,63.8,47.0,30.38,South,180,2.0,2.0,54,0.00,,,0.04,Rainwise IP-100,2013-04-30 23:12:00,
2013-04-30 19:17:00,63.7,46.0,30.38,SSE,157,2.0,3.0,53,0.00,,,0.04,Rainwise IP-100,2013-04-30 23:17:00,
2013-04-30 19:22:00,63.8,47.5,30.38,SE,135,1.0,4.0,55,0.00,,,0.04,Rainwise IP-100,2013-04-30 23:22:00,
2013-04-30 19:27:00,63.6,47.0,30.38,SSE,157,1.0,4.0,54,0.00,,,0.04,Rainwise IP-100,2013-04-30 23:27:00,
2013-04-30 19:32:00,63.2,46.0,30.38,SE,135,2.0,4.0,53,0.00,,,0.04,Rainwise IP-100,2013-04-30 23:32:00,
2013-04-30 19:37:00,62.9,47.0,30.38,South,180,1.0,5.0,55,0.00,,,0.04,Rainwise IP-100,2013-04-30 23:37:00,
2013-04-30 19:42:00,62.1,48.0,30.38,South,180,0.0,2.0,60,0.00,,,0.04,Rainwise IP-100,2013-04-30 23:42:00,
2013-04-30 19:48:00,59.9,49.0,30.38,East,90,0.0,1.0,67,0.00,,,0.04,Rainwise IP-100,2013-04-30 23:48:00,
2013-04-30 19:53:00,57.9,48.0,30.37,North,360,2.0,2.0,70,0.00,,,0.04,Rainwise IP-100,2013-04-30 23:53:00,
2013-04-30 19:58:00,56.6,48.0,30.37,North,360,2.0,2.0,73,0.00,,,0.04,Rainwise IP-100,2013-04-30 23:58:00,
2013-04-30 20:03:00,55.6,48.0,30.37,NNW,337,2.0,2.0,76,0.00,,,0.04,Rainwise IP-100,2013-05-01 00:03:00,
2013-04-30 20:08:00,54.6,48.0,30.37,NNW,337,2.0,2.0,78,0.00,,,0.04,Rainwise IP-100,2013-05-01 00:08:00,
2013-04-30 20:13:00,53.9,48.0,30.37,NNW,337,1.0,2.0,80,0.00,,,0.04,Rainwise IP-100,2013-05-01 00:13:00,
2013-04-30 20:18:00,53.3,47.5,30.37,NNW,337,2.0,2.0,81,0.00,,,0.04,Rainwise IP-100,2013-05-01 00:18:00,
2013-04-30 20:23:00,52.9,47.0,30.37,NNW,337,1.0,2.0,81,0.00,,,0.04,Rainwise IP-100,2013-05-01 00:23:00,
2013-04-30 20:28:00,52.5,47.5,30.37,NNW,337,2.0,2.0,82,0.00,,,0.04,Rainwise IP-100,2013-05-01 00:28:00,
2013-04-30 20:33:00,52.1,47.5,30.37,NNW,337,2.0,2.0,85,0.00,,,0.04,Rainwise IP-100,2013-05-01 00:33:00,
2013-04-30 20:38:00,51.4,47.0,30.37,NNW,337,1.0,2.0,85,0.00,,,0.04,Rainwise IP-100,2013-05-01 00:38:00,
2013-04-30 20:43:00,50.6,47.0,30.37,NNW,337,2.0,2.0,87,0.00,,,0.04,Rainwise IP-100,2013-05-01 00:43:00,
2013-04-30 20:49:00,49.9,47.0,30.37,NNW,337,1.0,2.0,89,0.00,,,0.04,Rainwise IP-100,2013-05-01 00:49:00,
2013-04-30 20:54:00,49.3,47.0,30.37,NNW,337,2.0,2.0,91,0.00,,,0.04,Rainwise IP-100,2013-05-01 00:54:00,
2013-04-30 20:59:00,48.8,47.0,30.37,NNW,337,1.0,2.0,91,0.00,,,0.04,Rainwise IP-100,2013-05-01 00:59:00,
2013-04-30 21:04:00,48.4,47.0,30.37,NNW,337,0.0,2.0,93,0.00,,,0.04,Rainwise IP-100,2013-05-01 01:04:00,
2013-04-30 21:09:00,47.9,47.0,30.37,NNW,337,0.0,2.0,94,0.00,,,0.04,Rainwise IP-100,2013-05-01 01:09:00,
2013-04-30 21:14:00,47.7,46.0,30.37,NNW,337,2.0,2.0,94,0.00,,,0.04,Rainwise IP-100,2013-05-01 01:14:00,
2013-04-30 21:19:00,47.5,46.0,30.37,NNW,337,1.0,2.0,95,0.00,,,0.04,Rainwise IP-100,2013-05-01 01:19:00,
2013-04-30 21:24:00,47.7,46.0,30.37,NW,315,1.0,2.0,95,0.00,,,0.04,Rainwise IP-100,2013-05-01 01:24:00,
2013-04-30 21:29:00,47.8,47.0,30.37,NW,315,0.0,2.0,93,0.00,,,0.04,Rainwise IP-100,2013-05-01 01:29:00,
2013-04-30 21:34:00,47.6,46.0,30.37,NW,315,0.0,0.0,93,0.00,,,0.04,Rainwise IP-100,2013-05-01 01:34:00,
2013-04-30 21:39:00,47.1,45.0,30.37,NW,315,0.0,0.0,93,0.00,,,0.04,Rainwise IP-100,2013-05-01 01:39:00,
2013-04-30 21:44:00,46.5,46.0,30.37,NW,315,0.0,2.0,97,0.00,,,0.04,Rainwise IP-100,2013-05-01 01:44:00,
2013-04-30 21:50:00,46.1,45.0,30.37,NW,315,0.0,2.0,96,0.00,,,0.04,Rainwise IP-100,2013-05-01 01:50:00,
2013-04-30 21:55:00,45.6,45.0,30.37,NW,315,2.0,0.0,97,0.00,,,0.04,Rainwise IP-100,2013-05-01 01:55:00,
2013-04-30 22:00:00,45.1,44.0,30.37,North,360,0.0,2.0,97,0.00,,,0.04,Rainwise IP-100,2013-05-01 02:00:00,
2013-04-30 22:05:00,44.8,44.0,30.37,North,360,0.0,1.0,96,0.00,,,0.04,Rainwise IP-100,2013-05-01 02:05:00,
2013-04-30 22:10:00,44.7,44.0,30.37,North,360,0.0,0.0,96,0.00,,,0.04,Rainwise IP-100,2013-05-01 02:10:00,
2013-04-30 22:15:00,44.4,43.0,30.37,NW,315,0.0,1.0,96,0.00,,,0.04,Rainwise IP-100,2013-05-01 02:15:00,
2013-04-30 22:20:00,44.3,43.0,30.37,NNW,337,0.0,2.0,96,0.00,,,0.04,Rainwise IP-100,2013-05-01 02:20:00,
2013-04-30 22:25:00,43.9,43.0,30.37,NNW,337,0.0,1.0,96,0.00,,,0.04,Rainwise IP-100,2013-05-01 02:25:00,
2013-04-30 22:30:00,43.7,43.0,30.37,North,360,2.0,2.0,96,0.00,,,0.04,Rainwise IP-100,2013-05-01 02:30:00,
2013-04-30 22:35:00,43.4,42.0,30.37,North,360,0.0,2.0,96,0.00,,,0.04,Rainwise IP-100,2013-05-01 02:35:00,
2013-04-30 22:40:00,43.5,43.0,30.36,North,360,0.0,2.0,96,0.00,,,0.04,Rainwise IP-100,2013-05-01 02:40:00,
2013-04-30 22:45:00,43.4,42.0,30.36,NW,315,1.0,2.0,96,0.00,,,0.04,Rainwise IP-100,2013-05-01 02:45:00,
2013-04-30 22:51:00,43.2,42.0,30.36,NW,315,0.0,2.0,96,0.00,,,0.04,Rainwise IP-100,2013-05-01 02:51:00,
2013-04-30 22:56:00,42.8,42.0,30.36,NW,315,0.0,0.0,96,0.00,,,0.04,Rainwise IP-100,2013-05-01 02:56:00,
2013-04-30 23:01:00,42.4,41.0,30.36,NW,315,0.0,0.0,96,0.00,,,0.04,Rainwise IP-100,2013-05-01 03:01:00,
2013-04-30 23:06:00,41.9,41.0,30.36,NW,315,0.0,0.0,96,0.00,,,0.04,Rainwise IP-100,2013-05-01 03:06:00,
2013-04-30 23:11:00,41.6,41.0,30.36,NW,315,0.0,0.0,96,0.00,,,0.04,Rainwise IP-100,2013-05-01 03:11:00,
2013-04-30 23:16:00,41.2,40.0,30.36,NW,315,0.0,0.0,96,0.00,,,0.04,Rainwise IP-100,2013-05-01 03:16:00,
2013-04-30 23:21:00,41.2,40.0,30.36,NW,315,1.0,2.0,96,0.00,,,0.04,Rainwise IP-100,2013-05-01 03:21:00,
2013-04-30 23:26:00,41.7,41.0,30.36,NW,315,1.0,2.0,96,0.00,,,0.04,Rainwise IP-100,2013-05-01 03:26:00,
2013-04-30 23:31:00,41.6,41.0,30.36,NW,315,2.0,2.0,96,0.00,,,0.04,Rainwise IP-100,2013-05-01 03:31:00,
2013-04-30 23:36:00,41.4,40.0,30.36,NW,315,0.0,2.0,96,0.00,,,0.04,Rainwise IP-100,2013-05-01 03:36:00,
2013-04-30 23:41:00,40.9,40.0,30.36,NW,315,0.0,0.0,96,0.00,,,0.04,Rainwise IP-100,2013-05-01 03:41:00,
2013-04-30 23:46:00,40.4,39.0,30.36,NW,315,0.0,2.0,96,0.00,,,0.04,Rainwise IP-100,2013-05-01 03:46:00,
2013-04-30 23:52:00,40.3,39.0,30.36,NW,315,1.0,2.0,96,0.00,,,0.04,Rainwise IP-100,2013-05-01 03:52:00,
2013-04-30 23:57:00,39.9,39.0,30.36,NW,315,0.0,2.0,96,0.00,,,0.04,Rainwise IP-100,2013-05-01 03:57:00,